Wolf Creek Observed Data For Previous 48 Hours

Caption
Day and Hour Reservoir Elevation (behind dam)* Tailwater Elevation (below dam)* Average Hourly Discharge*
10/17/2018 1 AM CDT 712.40 552.90 10,360
10/17/2018 2 AM CDT 712.40 552.90 10,360
10/17/2018 3 AM CDT 712.40 552.90 10,360
10/17/2018 4 AM CDT 712.40 552.90 10,360
10/17/2018 5 AM CDT 712.40 552.90 10,360
10/17/2018 6 AM CDT 712.40 552.90 10,360
10/17/2018 7 AM CDT 712.39 552.89 10,360
10/17/2018 8 AM CDT 712.39 552.89 10,360
10/17/2018 9 AM CDT 712.38 552.88 10,360
10/17/2018 10 AM CDT 712.38 552.88 10,360
10/17/2018 11 AM CDT 712.37 552.87 10,360
10/17/2018 12 PM CDT 712.37 552.87 10,360
10/17/2018 1 PM CDT 712.36 552.86 10,360
10/17/2018 2 PM CDT 712.35 552.85 10,360
10/17/2018 3 PM CDT 712.34 552.84 10,360
10/17/2018 4 PM CDT 712.33 552.83 10,360
10/17/2018 5 PM CDT 712.32 552.82 10,360
10/17/2018 6 PM CDT 712.31 552.81 10,360
10/17/2018 7 PM CDT 712.31 552.91 10,360
10/17/2018 8 PM CDT 712.31 552.91 10,360
10/17/2018 9 PM CDT 712.30 552.90 10,360
10/17/2018 10 PM CDT 712.29 552.99 10,360
10/17/2018 11 PM CDT 712.28 552.98 10,360
10/18/2018 12 AM CDT 712.27 552.97 10,360
10/18/2018 1 AM CDT 712.26 552.96 10,360
10/18/2018 2 AM CDT 712.26 552.96 10,360
10/18/2018 3 AM CDT 712.26 552.96 10,360
10/18/2018 4 AM CDT 712.25 552.95 10,360
10/18/2018 5 AM CDT 712.25 552.95 10,360
10/18/2018 6 AM CDT 712.25 552.95 10,360
10/18/2018 7 AM CDT 712.24 552.84 10,380
10/18/2018 8 AM CDT 712.22 552.82 10,380
10/18/2018 9 AM CDT 712.20 552.80 10,380
10/18/2018 10 AM CDT 712.18 552.78 10,460
10/18/2018 11 AM CDT 712.16 552.76 10,460
10/18/2018 12 PM CDT 712.14 552.84 10,460
10/18/2018 1 PM CDT 712.12 552.92 10,460
10/18/2018 2 PM CDT 712.10 552.90 10,460
10/18/2018 3 PM CDT 712.10 552.90 10,460
10/18/2018 4 PM CDT 712.10 552.90 10,460
10/18/2018 5 PM CDT 712.08 552.88 10,460
10/18/2018 6 PM CDT 712.08 552.88 10,460
10/18/2018 7 PM CDT 712.06 552.86 10,460
10/18/2018 8 PM CDT 712.04 552.84 10,460
10/18/2018 9 PM CDT 712.04 552.84 10,460
10/18/2018 10 PM CDT 712.05 552.85 10,460
10/18/2018 11 PM CDT 712.05 552.85 10,460
10/19/2018 12 AM CDT 712.03 552.83 10,460
10/19/2018 1 AM CDT 712.02 552.82 10,460
10/19/2018 2 AM CDT 712.01 552.81 10,460
10/19/2018 3 AM CDT 712.00 552.80 10,460
10/19/2018 4 AM CDT 711.99 552.89 10,460
10/19/2018 5 AM CDT 711.97 552.87 10,460
10/19/2018 6 AM CDT 711.95 552.85 10,460

Elevations are in feet above sea level. Discharges are in cubic feet per second and are reported at the end of the hour.